This demonstration page uses our WeatherBlox Daily Observations layout. Learn more.

Left ArrowRight Arrow

Hourly Observations for April 14, 2022

Temp ( °F °C ) Dew Point ( °F °C ) Humidity (%) Winds ( mph kmh ) Pressure ( in mb ) Visibility ( mi km ) Precip ( " mm )
12:52 am 00:52 Clear 34 1.1 30 -1.1 85 85 SSW 6 9 30.03 1017 10 16 0.00 0.00
1:52 am 01:52 Clear 35 1.7 31 -0.6 85 85 S 7 11 30.02 1017 10 16 0.00 0.00
2:52 am 02:52 Clear 32 0 29 -1.7 88 88 S 8 13 30.01 1016 10 16 0.00 0.00
3:52 am 03:52 Clear 34 1.1 30 -1.1 85 85 S 7 11 29.99 1016 10 16 0.00 0.00
4:52 am 04:52 Clear 33 0.6 29 -1.7 85 85 S 6 9 30.01 1016 10 16 0.00 0.00
5:52 am 05:52 Clear 32 0 28 -2.2 85 85 S 6 9 30.04 1017 10 16 0.00 0.00
6:52 am 06:52 Sunny 32 0 28 -2.2 85 85 S 5 7 30.08 1019 10 16 0.00 0.00
7:52 am 07:52 Sunny 36 2.2 31 -0.6 82 82 S 5 7 30.10 1019 10 16 0.00 0.00
8:52 am 08:52 Sunny 45 7.2 32 0 61 61 SSW 9 15 30.11 1020 10 16 0.00 0.00
9:52 am 09:52 Sunny 50 10 31 -0.6 48 48 W 10 17 30.14 1021 10 16 0.00 0.00
10:52 am 10:52 Sunny 51 10.6 33 0.6 50 50 undefined N/A 30.16 1021 10 16 0.00 0.00
11:52 am 11:52 Sunny 54 12.2 31 -0.6 42 42 W 10 17 30.16 1021 10 16 0.00 0.00
12:52 pm 12:52 Sunny 57 13.9 29 -1.7 34 34 WSW 15 24 30.14 1021 10 16 0.00 0.00
1:52 pm 13:52 Sunny 59 15 30 -1.1 33 33 WSW 13 20 30.12 1020 10 16 0.00 0.00
2:52 pm 14:52 Sunny 60 15.6 27 -2.8 28 28 WSW 20 31 30.11 1020 10 16 0.00 0.00
3:52 pm 15:52 Sunny 60 15.6 29 -1.7 31 31 SW 10 17 30.08 1019 10 16 0.00 0.00
4:52 pm 16:52 Sunny 61 16.1 29 -1.7 30 30 WSW 10 17 30.06 1018 10 16 0.00 0.00
5:52 pm 17:52 Sunny 61 16.1 30 -1.1 31 31 SW 16 26 30.04 1017 10 16 0.00 0.00
6:52 pm 18:52 Sunny 59 15 33 0.6 38 38 SW 9 15 30.03 1017 10 16 0.00 0.00
7:52 pm 19:52 Clear 54 12.2 33 0.6 45 45 S 6 9 30.03 1017 10 16 0.00 0.00
8:52 pm 20:52 Clear 49 9.4 33 0.6 55 55 S 6 9 30.04 1017 10 16 0.00 0.00
9:52 pm 21:52 Clear 51 10.6 29 -1.7 43 43 S 8 13 30.04 1017 10 16 0.00 0.00
10:52 pm 22:52 Clear 50 10 29 -1.7 44 44 S 10 17 30.04 1017 10 16 0.00 0.00
11:52 pm 23:52 Clear 50 10 29 -1.7 44 44 SSE 12 19 30.01 1016 10 16 0.00 0.00

Powered by AerisWeather